| time (UTC) | temp C | wind direction | speed KPH | gust KPH | rain 1hr cm | rain 24hr cm | rain mn cm | humidity % | barometer mb |
| 20260505171325 | 26 | 174 | 0.0 | 3.2 | 0.00 | 0.00 | 0.00 | 83 | 1010.8 |
| 20260505170421 | 25 | 211 | 0.0 | 4.8 | 0.00 | 0.00 | 0.00 | 82 | 1010.9 |
| 20260505165423 | 25 | 193 | 1.6 | 6.4 | 0.00 | 0.00 | 0.00 | 83 | 1010.8 |
| 20260505164421 | 26 | 225 | 0.0 | 3.2 | 0.00 | 0.00 | 0.00 | 81 | 1010.8 |
| 20260505164322 | 26 | 236 | 0.0 | 3.2 | 0.00 | 0.00 | 0.00 | 82 | 1010.7 |
| 20260505163322 | 26 | 180 | 0.0 | 1.6 | 0.00 | 0.00 | 0.00 | 82 | 1010.7 |
| 20260505162322 | 25 | 200 | 1.6 | 4.8 | 0.00 | 0.00 | 0.00 | 82 | 1010.8 |
| 20260505161324 | 25 | 220 | 0.0 | 3.2 | 0.00 | 0.00 | 0.00 | 81 | 1010.7 |
| 20260505160325 | 25 | 221 | 1.6 | 6.4 | 0.00 | 0.00 | 0.00 | 81 | 1010.6 |
| 20260505152525 | 25 | 224 | 3.2 | 6.4 | 0.00 | 0.00 | 0.00 | 80 | 1010.5 |
| 20260505151525 | 25 | 219 | 3.2 | 11.3 | 0.00 | 0.00 | 0.00 | 81 | 1010.4 |
| 20260505150623 | 25 | 209 | 1.6 | 6.4 | 0.00 | 0.00 | 0.00 | 85 | 1010.3 |
| 20260505140523 | 24 | 209 | 3.2 | 4.8 | 0.00 | 0.00 | 0.00 | 85 | 1010.4 |
| 20260505123822 | 23 | 225 | 0.0 | 3.2 | 0.00 | 0.00 | 0.00 | 88 | 1009.9 |
| 20260505123724 | 23 | 225 | 0.0 | 0.0 | 0.00 | 0.00 | 0.00 | 88 | 1010.0 |
| 20260505122723 | 23 | 157 | 0.0 | 3.2 | 0.00 | 0.00 | 0.00 | 88 | 1009.5 |
| 20260505120723 | 23 | 205 | 0.0 | 4.8 | 0.00 | 0.00 | 0.00 | 88 | 1010.0 |
| 20260505115723 | 23 | 217 | 1.6 | 6.4 | 0.00 | 0.00 | 0.00 | 88 | 1010.0 |
| 20260505114723 | 22 | 185 | 0.0 | 0.0 | 0.00 | 0.00 | 0.00 | 87 | 1009.8 |
| 20260505113822 | 22 | 239 | 0.0 | 1.6 | 0.00 | 0.00 | 0.00 | 88 | 1009.9 |
| 20260505113723 | 22 | 247 | 0.0 | 0.0 | 0.00 | 0.00 | 0.00 | 88 | 1009.9 |
| 20260505112724 | 22 | 225 | 0.0 | 3.2 | 0.00 | 0.00 | 0.00 | 88 | 1009.6 |
| 20260505111724 | 22 | 197 | 0.0 | 3.2 | 0.00 | 0.00 | 0.00 | 88 | 1009.8 |
| 20260505110723 | 22 | 202 | 0.0 | 3.2 | 0.00 | 0.00 | 0.00 | 87 | 1010.1 |
| 20260505101923 | 22 | 225 | 0.0 | 1.6 | 0.00 | 0.00 | 0.00 | 87 | 1009.9 |
| 20260505100924 | 22 | 211 | 1.6 | 3.2 | 0.00 | 0.00 | 0.00 | 87 | 1009.7 |
| 20260505095923 | 22 | 225 | 0.0 | 3.2 | 0.00 | 0.00 | 0.00 | 86 | 1009.7 |
| 20260505095023 | 22 | 225 | 0.0 | 1.6 | 0.00 | 0.00 | 0.00 | 87 | 1009.6 |
| 20260505094024 | 22 | 225 | 0.0 | 1.6 | 0.00 | 0.00 | 0.00 | 86 | 1010.1 |
| 20260505093022 | 22 | 203 | 0.0 | 1.6 | 0.00 | 0.00 | 0.00 | 86 | 1010.1 |
| 20260505092924 | 22 | 221 | 3.2 | 6.4 | 0.00 | 0.00 | 0.00 | 87 | 1010.1 |
| 20260505091923 | 22 | 180 | 0.0 | 0.0 | 0.00 | 0.00 | 0.00 | 86 | 1009.9 |
| 20260505091822 | 22 | 180 | 0.0 | 0.0 | 0.00 | 0.00 | 0.00 | 86 | 1010.0 |
| 20260505090823 | 22 | 225 | 1.6 | 3.2 | 0.00 | 0.00 | 0.00 | 86 | 1010.1 |
| 20260505085823 | 22 | 225 | 0.0 | 4.8 | 0.00 | 0.00 | 0.00 | 85 | 1010.1 |
| 20260505085725 | 22 | 225 | 0.0 | 1.6 | 0.00 | 0.00 | 0.00 | 85 | 1010.1 |
| 20260505084723 | 22 | 207 | 0.0 | 1.6 | 0.00 | 0.00 | 0.00 | 85 | 1010.1 |
| 20260505083723 | 22 | 225 | 1.6 | 3.2 | 0.00 | 0.00 | 0.00 | 85 | 1010.0 |
| 20260505082722 | 22 | 225 | 0.0 | 3.2 | 0.00 | 0.00 | 0.00 | 84 | 1010.2 |
| 20260505081723 | 22 | 193 | 1.6 | 4.8 | 0.00 | 0.00 | 0.00 | 83 | 1010.2 |
| 20260505080722 | 22 | 214 | 1.6 | 4.8 | 0.00 | 0.00 | 0.00 | 84 | 1010.3 |
| 20260505075722 | 22 | 216 | 1.6 | 4.8 | 0.00 | 0.00 | 0.00 | 84 | 1010.4 |
| 20260505075623 | 22 | 225 | 1.6 | 3.2 | 0.00 | 0.00 | 0.00 | 84 | 1010.3 |
| 20260505074622 | 22 | 225 | 0.0 | 0.0 | 0.00 | 0.00 | 0.00 | 84 | 1010.4 |
| 20260505073623 | 22 | 224 | 0.0 | 1.6 | 0.00 | 0.00 | 0.00 | 84 | 1010.4 |
| 20260505072722 | 22 | 215 | 0.0 | 4.8 | 0.00 | 0.00 | 0.00 | 83 | 1010.5 |
| 20260505070823 | 22 | 225 | 1.6 | 4.8 | 0.00 | 0.00 | 0.00 | 84 | 1010.6 |
| 20260505065824 | 22 | 216 | 1.6 | 4.8 | 0.00 | 0.00 | 0.00 | 84 | 1010.9 |
| 20260505064822 | 22 | 190 | 0.0 | 3.2 | 0.00 | 0.00 | 0.00 | 84 | 1011.1 |
| 20260505063822 | 22 | 225 | 0.0 | 0.0 | 0.00 | 0.00 | 0.00 | 84 | 1011.0 |
| 20260505062823 | 21 | 225 | 0.0 | 0.0 | 0.00 | 0.00 | 0.00 | 84 | 1011.4 |
| 20260505061824 | 22 | 233 | 0.0 | 0.0 | 0.00 | 0.00 | 0.00 | 84 | 1011.3 |
| 20260505060823 | 22 | 204 | 0.0 | 1.6 | 0.00 | 0.00 | 0.00 | 83 | 1011.5 |
| 20260505054824 | 22 | 202 | 0.0 | 1.6 | 0.00 | 0.00 | 0.00 | 83 | 1011.5 |
| 20260505053823 | 21 | 204 | 0.0 | 4.8 | 0.00 | 0.00 | 0.00 | 82 | 1011.6 |
| 20260505052823 | 22 | 202 | 1.6 | 3.2 | 0.00 | 0.00 | 0.00 | 81 | 1011.4 |
| 20260505051823 | 21 | 226 | 0.0 | 3.2 | 0.00 | 0.00 | 0.00 | 81 | 1011.6 |
| 20260505050823 | 21 | 218 | 1.6 | 3.2 | 0.00 | 0.00 | 0.00 | 81 | 1011.5 |
| 20260505041736 | 22 | 200 | 0.0 | 1.6 | 0.00 | 0.00 | 0.00 | 80 | 1012.3 |
| 20260505040834 | 22 | 202 | 0.0 | 6.4 | 0.00 | 0.00 | 0.00 | 80 | 1012.0 |
| 20260505035836 | 22 | 225 | 0.0 | 1.6 | 0.00 | 0.00 | 0.00 | 79 | 1012.3 |
| 20260505034934 | 22 | 224 | 1.6 | 3.2 | 0.00 | 0.00 | 0.00 | 79 | 1012.2 |
| 20260505033934 | 22 | 221 | 0.0 | 3.2 | 0.00 | 0.00 | 0.00 | 78 | 1012.4 |
| 20260505032034 | 22 | 247 | 0.0 | 1.6 | 0.00 | 0.00 | 0.00 | 77 | 1012.3 |
| 20260505031033 | 22 | 202 | 1.6 | 3.2 | 0.00 | 0.00 | 0.00 | 77 | 1012.4 |
| 20260505030038 | 22 | 189 | 0.0 | 1.6 | 0.00 | 0.00 | 0.00 | 76 | 1012.3 |
| 20260505025034 | 22 | 145 | 0.0 | 1.6 | 0.00 | 0.00 | 0.00 | 75 | 1012.4 |
| 20260505024035 | 22 | 202 | 0.0 | 1.6 | 0.00 | 0.00 | 0.00 | 74 | 1012.3 |
| 20260505023037 | 22 | 186 | 0.0 | 1.6 | 0.00 | 0.00 | 0.00 | 74 | 1012.2 |
| 20260505022035 | 22 | 225 | 0.0 | 3.2 | 0.00 | 0.00 | 0.00 | 74 | 1012.2 |
| 20260505021036 | 22 | 225 | 0.0 | 0.0 | 0.00 | 0.00 | 0.00 | 72 | 1012.0 |
| 20260505020037 | 22 | 215 | 3.2 | 6.4 | 0.00 | 0.00 | 0.00 | 73 | 1012.0 |
| 20260505015036 | 23 | 225 | 0.0 | 3.2 | 0.00 | 0.00 | 0.00 | 73 | 1012.0 |
| 20260505014934 | 23 | 223 | 1.6 | 6.4 | 0.00 | 0.00 | 0.00 | 73 | 1011.8 |
| 20260505013934 | 22 | 195 | 1.6 | 3.2 | 0.00 | 0.00 | 0.00 | 72 | 1011.9 |
| 20260505012936 | 22 | 221 | 1.6 | 4.8 | 0.00 | 0.00 | 0.00 | 73 | 1011.8 |
| 20260505011934 | 23 | 195 | 0.0 | 1.6 | 0.00 | 0.00 | 0.00 | 72 | 1011.9 |
| 20260505010936 | 23 | 200 | 1.6 | 4.8 | 0.00 | 0.00 | 0.00 | 71 | 1011.8 |
| 20260505005933 | 23 | 217 | 0.0 | 3.2 | 0.00 | 0.00 | 0.00 | 70 | 1011.8 |
| 20260505004934 | 23 | 186 | 0.0 | 3.2 | 0.00 | 0.00 | 0.00 | 70 | 1011.7 |
| 20260505002935 | 23 | 205 | 0.0 | 4.8 | 0.00 | 0.00 | 0.00 | 68 | 1011.6 |
| 20260505001933 | 23 | 201 | 1.6 | 6.4 | 0.00 | 0.00 | 0.00 | 67 | 1011.6 |
| 20260504235936 | 24 | 134 | 0.0 | 0.0 | 0.00 | 0.00 | 0.00 | 66 | 1011.9 |
| 20260504234033 | 24 | 216 | 3.2 | 11.3 | 0.00 | 0.00 | 0.00 | 65 | 1011.8 |
| 20260504233039 | 25 | 223 | 3.2 | 6.4 | 0.00 | 0.00 | 0.00 | 65 | 1011.9 |
| 20260504232035 | 25 | 220 | 3.2 | 6.4 | 0.00 | 0.00 | 0.00 | 65 | 1012.1 |
| 20260504231034 | 25 | 132 | 0.0 | 1.6 | 0.00 | 0.00 | 0.00 | 64 | 1012.1 |
| 20260504230038 | 25 | 161 | 0.0 | 4.8 | 0.00 | 0.00 | 0.00 | 64 | 1012.4 |
| 20260504225035 | 25 | 197 | 0.0 | 3.2 | 0.00 | 0.00 | 0.00 | 64 | 1012.5 |
| 20260504223036 | 25 | 189 | 0.0 | 4.8 | 0.00 | 0.00 | 0.00 | 63 | 1012.7 |
| 20260504221035 | 25 | 184 | 1.6 | 6.4 | 0.00 | 0.00 | 0.00 | 62 | 1012.8 |
| 20260504220036 | 25 | 178 | 1.6 | 8.0 | 0.00 | 0.00 | 0.00 | 61 | 1012.8 |
| 20260504215036 | 25 | 202 | 1.6 | 3.2 | 0.00 | 0.00 | 0.00 | 60 | 1013.0 |
| 20260504214033 | 26 | 201 | 3.2 | 8.0 | 0.00 | 0.00 | 0.00 | 60 | 1013.2 |
| 20260504213036 | 26 | 180 | 0.0 | 0.0 | 0.00 | 0.00 | 0.00 | 59 | 1013.1 |
| 20260504212133 | 26 | 161 | 0.0 | 3.2 | 0.00 | 0.00 | 0.00 | 57 | 1013.1 |
| 20260504211136 | 27 | 213 | 1.6 | 3.2 | 0.00 | 0.00 | 0.00 | 56 | 1013.2 |
| 20260504205235 | 27 | 195 | 1.6 | 8.0 | 0.00 | 0.00 | 0.00 | 56 | 1013.3 |
| 20260504204235 | 27 | 220 | 1.6 | 4.8 | 0.00 | 0.00 | 0.00 | 54 | 1013.6 |
| 20260504203233 | 27 | 198 | 1.6 | 4.8 | 0.00 | 0.00 | 0.00 | 54 | 1013.7 |
| 20260504203134 | 27 | 216 | 3.2 | 8.0 | 0.00 | 0.00 | 0.00 | 54 | 1013.8 |
| 20260504202233 | 27 | 207 | 0.0 | 3.2 | 0.00 | 0.00 | 0.00 | 54 | 1013.8 |
| 20260504201235 | 27 | 211 | 3.2 | 8.0 | 0.00 | 0.00 | 0.00 | 53 | 1014.0 |
| 20260504200236 | 27 | 208 | 0.0 | 6.4 | 0.00 | 0.00 | 0.00 | 53 | 1014.0 |
| 20260504195333 | 27 | 225 | 0.0 | 1.6 | 0.00 | 0.00 | 0.00 | 52 | 1014.0 |
| 20260504193434 | 28 | 191 | 0.0 | 0.0 | 0.00 | 0.00 | 0.00 | 51 | 1014.4 |
| 20260504192434 | 28 | 217 | 1.6 | 4.8 | 0.00 | 0.00 | 0.00 | 50 | 1014.7 |
| 20260504191435 | 27 | 190 | 0.0 | 1.6 | 0.00 | 0.00 | 0.00 | 52 | 1014.8 |
| 20260504185534 | 27 | 194 | 3.2 | 8.0 | 0.00 | 0.00 | 0.00 | 51 | 1014.9 |
| 20260504184537 | 27 | 161 | 0.0 | 6.4 | 0.00 | 0.00 | 0.00 | 52 | 1014.7 |
| 20260504183533 | 27 | 228 | 1.6 | 6.4 | 0.00 | 0.00 | 0.00 | 52 | 1014.7 |
| 20260504181536 | 27 | 223 | 1.6 | 4.8 | 0.00 | 0.00 | 0.00 | 51 | 1015.2 |
| 20260504180534 | 26 | 188 | 0.0 | 4.8 | 0.00 | 0.00 | 0.00 | 54 | 1015.3 |
| 20260504175533 | 26 | 180 | 0.0 | 1.6 | 0.00 | 0.00 | 0.00 | 52 | 1015.4 |
| 20260504174536 | 27 | 173 | 0.0 | 3.2 | 0.00 | 0.00 | 0.00 | 51 | 1015.3 |
| 20260504173536 | 27 | 201 | 1.6 | 8.0 | 0.00 | 0.00 | 0.00 | 52 | 1015.7 |
| 20260504172536 | 27 | 214 | 4.8 | 9.7 | 0.00 | 0.00 | 0.00 | 51 | 1015.9 |